Погода в Уз

Узбекистан     38°56′30″N   66°50′52″E
темп.,
°C
ветер,
м/с
пор.,
м/с
влажн.,
%
обл.,
%
осадки,
мм/ч
давл.,
гПа
погр.,
м
29 ноября, пн
пн2923:00+8в00555 0.0 102310
02:00+7в11600 0.0 102310
05:00+8в22570 0.0 102311
08:00+8в22450 0.0 102310
11:00+15ссв22270 0.0 1022294
14:00+18ссз222451 0.0 1020640
17:00+15сз1131100 0.0 102011
20:00+13в2232100 0.0 102110
30 ноября, вт
вт3023:00+13в223293 0.0 102111
02:00+12в2231100 0.0 102013
05:00+12в1228100 0.0 102111
08:00+12в222897 0.0 102111
11:00+18св11195 0.0 1021323
14:00+20сз22170 0.0 1019910
17:00+17зюз22242 0.0 101912
20:00+13ююв11301 0.0 102010
1 декабря, ср
ср123:00+12в12323 0.0 101911
02:00+12в22310 0.0 101914
05:00+12в33280 0.0 101721
08:00+12в33260 0.0 101726
11:00+20в23160 0.0 1016327
14:00+23ю04130 0.0 10131808
17:00+19в22190 0.0 101317
20:00+16вюв3423100 0.0 101438
2 декабря, чт
чт223:00+15в4522100 0.0 101350
02:00+15вюв342166 0.0 101241
05:00+14в452071 0.0 101243
08:00+15в3418100 0.0 101340
11:00+23в231289 0.0 1013226
14:00+26в038100 0.0 10111342
17:00+21в221349 0.0 101211
20:00+17с1217100 0.0 101413
3 декабря, пт
пт323:00+16всв2217100 0.0 101512
02:00+16в2216100 0.0 101513
05:00+15зсз2318100 0.0 101626
08:00+14всв1121100 0.0 101811
11:00+17св1217100 0.0 101879
14:00+19з2217100 0.0 1017426
17:00+16юз1123100 0.0 101711
20:00+14в1127100 0.0 101810